THORAD AGENA D DEB, 6765

Orbit data source: Space-Track

THORAD AGENA D DEB, 6765 is space debris in SSO originally from a launch on Wed, 08 Apr 1970 UTC launched from the Air Force Western Test Range (AFWTR). Debris objects in space refer to the collection of defunct objects orbiting the Earth. Examples of debris include non-operational satellites, rocket bodies, and fragments generated from explosions, collisions, or faulty payload assembly.

Loading next visibility...
Identifier
6765, 1970-025NG
Orbit
SSO
Country
Flag of USUS
Related business
Manufacturer
Unknown
Mission
Spacecraft
Bus & Motor
Unknown
Mass
Unknown
Launch date (UTC)
1970-04-08 (56 years ago)
Launch vehicle
Unknown
Launch site
Air Force Western Test Range (AFWTR)
Object type
Payload
Rocket body
Debris
Shape & HBR
Unknown shape, 0.1 m
Radar Cross Section
Small (<0.1 m²)

Expand to show TLE details & history
Last TLE update: 2 days ago

TLE from 2 days ago
0 THORAD AGENA D DEB
1 06765U 70025NG  25298.78722171  .00000263  00000-0  44236-3 0  9992
2 06765  99.8034 223.9540 0014758 202.3460 216.4989 13.55669253738941
Epoch: 2025-10-25T18:53Z
TLE epoch observation values (Epoch: 2025-10-25T18:53:35.955Z)
Latitude
57.48881°
Longitude
-109.50603°
Altitude
1,069.863 km
Speed
7.318 km/s
True Right ascension
13h 53m 13s
True Declination
57° 20' 21"
Sunlit
Object was in daylight at epoch
Visualization orbit readout
Latitude
Unknown
Longitude
Unknown
Altitude
Unknown
Speed
Unknown
Apparent Right ascension
Unknown
Apparent Declination
Unknown
Sunlit
N/A
Visualization observer readout
Local Sidereal Time
12:20:34
Azimuth
Unknown
Elevation
Unknown
Doppler factor
Unknown
Orbital elements
Apogee altitude
1,059.733 km
Perigee altitude
1,037.811 km
Semi-major axis
7,426.909 km
Eccentricity
0.00148
Inclination
99.8034°
RAAN
223.954°
Arg. of periapsis
202.346°
True anomaly
216.39846°
Mean anomaly
216.4989°
Eccentric anomaly
216.44866°
Mean motion
3.39103 °/min
Orbital period
106.16 mins
BSTAR
0.00044236
Loading maneuver chart data...
Computing Atmospheric mass density...

Documentation

Showing up to 5 results
|